Weather past 2 weeks in Port-aux-Francais, French Southern Territories

Now
50 °F

Cool.


Feels Like: 44 °F
Forecast: 44 / 48 °F
Wind: 20 mph from Northwest

Location: Port-Aux-Francais Iles Kerguelen

Current Time: Apr 2, 2015 at 3:36:05 PM

Latest Report: Apr 2, 2015 at 3:00 PM


Visibility: N/A

Pressure: 30.17 "Hg

Humidity: 58%

Dew point: 36 °F

Location of Port-aux-FrancaisLocation

Historic Weather in Port-aux-Francais — Graph

°F

Port-aux-Francais temperature yesterday

Maximum temperature yesterday: 47 °F (at 1:00 PM)
Minimum temperature yesterday: 38 °F (at 7:00 AM)
Average temperature yesterday: 42 °F

Past Weeks' High & Low Weather Summary

 TemperatureHumidityPressure
High61 °F (Mar 26, 6:00 PM)91% (Mar 23, 9:00 AM)30.32 "Hg (Mar 23, 9:00 AM)
Low37 °F (Mar 29, 1:00 AM)41% (Mar 26, 12:00 PM)29.38 "Hg (Mar 25, 1:00 PM)
Average46 °F68%29.84 "Hg
* Reported Mar 18 2:00 PM — Apr 2 2:00 PM, Port-aux-Francais, Weather by CustomWeather, © 2015

Note: Actual official high and low records may vary slightly from our data, if they occured in-between our weather recording intervals... More about our weather records

Advertising

Port-aux-Francais weather history for previous 24 hours

 ConditionsComfort  
Time TempWeatherWind HumidityBarometerVisibility
2:00 PM
Thu, Apr 2
51 °FOvercast.28 mph58%30.17 "Hg31 mi
1:00 PM53 °FCool.28 mph54%30.18 "HgN/A
12:00 PM52 °FCool.14 mph53%30.18 "HgN/A
11:00 AM49 °FOvercast.25 mph59%30.20 "Hg31 mi
10:00 AM48 °FCool.20 mph62%30.20 "HgN/A
9:00 AM46 °FCool.15 mph64%30.20 "HgN/A
8:00 AM44 °FOvercast.14 mph67%30.20 "Hg31 mi
7:00 AM42 °FQuite cool.15 mph72%30.20 "HgN/A
6:00 AM41 °FQuite cool.17 mph72%30.20 "HgN/A
5:00 AM42 °FQuite cool.10 mph72%30.22 "HgN/A
4:00 AM41 °FQuite cool.14 mph74%30.23 "HgN/A
3:00 AM41 °FQuite cool.21 mph74%30.23 "HgN/A
1:00 AM40 °FQuite cool.15 mph73%30.24 "HgN/A
12:00 AM41 °FQuite cool.15 mph74%30.24 "HgN/A
11:00 PM
Wed, Apr 1
41 °FQuite cool.17 mph74%30.24 "HgN/A
10:00 PM41 °FQuite cool.14 mph73%30.24 "HgN/A
9:00 PM42 °FQuite cool.14 mph73%30.24 "HgN/A
8:00 PM41 °FQuite cool.6 mph78%30.24 "HgN/A
7:00 PM43 °FQuite cool.13 mph66%30.24 "HgN/A
6:00 PM44 °FQuite cool.7 mph66%30.22 "HgN/A
5:00 PM45 °FQuite cool.7 mph67%30.21 "HgN/A
4:00 PM46 °FCool.12 mph67%30.20 "HgN/A
3:00 PM46 °FCool.6 mph58%30.19 "HgN/A
Weather by CustomWeather, © 2015

See weather overviewHow to use our weather pages